This demonstration page uses our WeatherBlox Daily Observations layout. Learn more.

Left ArrowRight Arrow

44.8408, -93.29828

Hourly Observations for September 22, 2021

Temp ( °F °C ) Dew Point ( °F °C ) Humidity (%) Winds ( mph kmh ) Pressure ( in mb ) Visibility ( mi km ) Precip ( " mm )
12:53 am 00:53 Clear 52 11.1 44 6.7 75 75 NNW 5 7 30.32 1027 10 16 0.00 0.00
1:53 am 01:53 Clear 52 11.1 44 6.7 75 75 Calm 30.31 1026 10 16 0.00 0.00
2:53 am 02:53 Clear 50 10 44 6.7 80 80 NW 3 6 30.32 1027 10 16 0.00 0.00
3:53 am 03:53 Clear 49 9.4 44 6.7 83 83 Calm 30.32 1027 10 16 0.00 0.00
4:53 am 04:53 Clear 50 10 44 6.7 80 80 Calm 30.32 1027 10 16 0.00 0.00
5:53 am 05:53 Clear 47 8.3 43 6.1 86 86 Calm 30.33 1027 10 16 0.00 0.00
6:53 am 06:53 Clear 48 8.9 44 6.7 86 86 Calm 30.34 1028 10 16 0.00 0.00
7:53 am 07:53 Sunny with Patchy Fog 50 10 45 7.2 83 83 Calm 30.35 1028 10 16 0.00 0.00
8:53 am 08:53 Sunny 53 11.7 46 7.8 77 77 Calm 30.35 1028 10 16 0.00 0.00
9:53 am 09:53 Sunny 57 13.9 46 7.8 67 67 Calm 30.34 1028 10 16 0.00 0.00
10:53 am 10:53 Sunny 60 15.6 46 7.8 60 60 Calm 30.35 1028 10 16 0.00 0.00
11:53 am 11:53 Sunny 64 17.8 43 6.1 46 46 WSW 3 6 30.32 1027 10 16 0.00 0.00
12:53 pm 12:53 Sunny 67 19.4 41 5 39 39 Calm 30.30 1026 10 16 0.00 0.00
1:53 pm 13:53 Sunny 68 20 40 4.4 36 36 Calm 30.28 1025 10 16 0.00 0.00
2:53 pm 14:53 Sunny 69 20.6 42 5.6 38 38 Calm 30.25 1024 10 16 0.00 0.00
3:53 pm 15:53 Sunny 70 21.1 42 5.6 37 37 NNW 6 9 30.23 1024 10 16 0.00 0.00
4:53 pm 16:53 Sunny 70 21.1 42 5.6 37 37 Calm 30.22 1023 10 16 0.00 0.00
5:53 pm 17:53 Sunny 69 20.6 41 5 36 36 W 3 6 30.21 1023 10 16 0.00 0.00
6:53 pm 18:53 Sunny 66 18.9 43 6.1 43 43 NW 5 7 30.20 1023 10 16 0.00 0.00
7:53 pm 19:53 Clear 63 17.2 46 7.8 54 54 WNW 3 6 30.19 1022 10 16 0.00 0.00
8:53 pm 20:53 Clear 63 17.2 44 6.7 50 50 Calm 30.20 1023 10 16 0.00 0.00
9:53 pm 21:53 Clear 60 15.6 45 7.2 58 58 ESE 3 6 30.19 1022 10 16 0.00 0.00
10:53 pm 22:53 Clear 58 14.4 46 7.8 65 65 Calm 30.18 1022 10 16 0.00 0.00
11:53 pm 23:53 Clear 58 14.4 45 7.2 62 62 Calm 30.16 1021 10 16 0.00 0.00

Powered by AerisWeather